Preview of NWS' New Version of Forecast
This preview is not operational and should not be used for support decisions.

Regional Weather Roundup (RWR)

Issued by National Weather Service (NWS)

                            
000
ASUS43 KTOP 200608
RWRKS 

WEATHER ROUNDUP FOR KANSAS
NATIONAL WEATHER SERVICE GOODLAND KS
1200 AM CST WED FEB 20 2019

NOTE:  "FAIR" INDICATES FEW OR NO CLOUDS BELOW 12,000 FEET WITH NO
SIGNIFICANT WEATHER AND/OR OBSTRUCTIONS TO VISIBILITY.

KSZ001>006-013>018-027>032-041>047-200700-
NORTHWEST KANSAS
  
CITY           SKY/WX    TMP DP  RH WIND       PRES   REMARKS
GOODLAND       LGT SNOW N/A N/A N/A S3        29.75F                  
                                      6HR PCP:  0.07;                

HILL CITY      LGT SNOW  21  20  96 E3        29.85F FOG              
6HR MIN TEMP:  21; 6HR MAX TEMP:  22; 6HR PCP:  0.05;                

RUSSELL        LGT SNOW  23  23 100 E3        29.85F FOG              
6HR MIN TEMP:  23; 6HR MAX TEMP:  23; 6HR PCP:  0.02;                

$$

KSZ061>065-074>080-084>089-200700-
SOUTHWEST KANSAS
  
CITY           SKY/WX    TMP DP  RH WIND       PRES   REMARKS
DODGE CITY     LGT SNOW  23  21  92 S7        29.82F FOG              
6HR MIN TEMP:  23; 6HR MAX TEMP:  24; 6HR PCP: TRACE;                

ELKHART        CLEAR     21  20  98 S13       29.74F FOG     WCI   8  
GARDEN CITY    LGT SNOW  22  21  96 S9        29.79F FOG              
6HR MIN TEMP:  21; 6HR MAX TEMP:  22; 6HR PCP:  0.01;                

GREAT BEND     LGT SNOW  24  22  91 SE3       29.86F FOG              
LIBERAL        LGT SNOW  23  22  96 S10       29.81F FOG     WCI  12  
PRATT          CLOUDY    26  24  95 SW3       29.85F FOG              
6HR MIN TEMP:  26; 6HR MAX TEMP:  26;                                

$$

KSZ066>073-081>083-090>101-200700-
SOUTHEAST KANSAS
  
CITY           SKY/WX    TMP DP  RH WIND       PRES   REMARKS
CHANUTE        CLOUDY    31  28  89 E5        29.90F FOG              
6HR MIN TEMP:  31; 6HR MAX TEMP:  32; 6HR PCP:  0.14;                

COFFEYVILLE    CLOUDY    32  32 100 E3        29.89F FOG              
6HR MIN TEMP:  32; 6HR MAX TEMP:  32; 6HR PCP:  0.08;                

HUTCHINSON     CLOUDY    26  26 100 SE5       29.87F FOG              
6HR MIN TEMP:  26; 6HR MAX TEMP:  28; 6HR PCP:  0.07;                

MEDICINE LODGE   N/A     26  25  96 CALM      29.87F                  
NEWTON         CLOUDY    25  24  96 SE8       29.87F                  
PARSONS        CLOUDY    31  31 100 E5        29.90F FOG              
6HR MIN TEMP:  31; 6HR MAX TEMP:  32; 6HR PCP: TRACE;                

WICHITA INTL   LGT SNOW  28  27  96 SE5       29.87F FOG              
6HR MIN TEMP:  28; 6HR MAX TEMP:  30; 6HR PCP:  0.08;                

WICHITA JABRA  CLOUDY    26  24  92 E7        29.86F FOG              
6HR MIN TEMP:  26; 6HR MAX TEMP:  29; 6HR PCP:  0.05;                

WICHITA MCCONL CLOUDY    27  27 100 CALM      29.86  FOG              
WINFIELD       CLOUDY    29  28  96 SE7       29.91S FOG              
6HR MIN TEMP:  29; 6HR MAX TEMP:  31; 6HR PCP:  0.05;                

$$

KSZ007>012-019>026-033>040-048>060-102>105-200700-
NORTHEAST KANSAS
  
CITY           SKY/WX    TMP DP  RH WIND       PRES   REMARKS
CONCORDIA      CLOUDY    23  22  96 CALM      29.89F FOG              
6HR MIN TEMP:  22; 6HR MAX TEMP:  23; 6HR PCP:  0.19;                

EMPORIA        CLOUDY    26  26 100 E12       29.89F FOG     WCI  16  
6HR MIN TEMP:  26; 6HR MAX TEMP:  27; 6HR PCP:  0.19;                

LAWRENCE       CLOUDY    28  25  88 E6        29.94S FOG              
6HR MIN TEMP:  27; 6HR MAX TEMP:  28; 6HR PCP:  0.26;                

MANHATTAN      CLOUDY    28  25  88 E8        29.92S                  
6HR MIN TEMP:  27; 6HR MAX TEMP:  28; 6HR PCP:  0.03;                

MARYSVILLE     DRIZZLE   27  25  93 SE8       29.90F                  
OLATHE IND     LGT SNOW  28  27  96 E9        29.92F FOG              
6HR MIN TEMP:  26; 6HR MAX TEMP:  29; 6HR PCP:  0.25;                

OLATHE EXE     LGT SNOW  27  27 100 E8        29.92F FOG              
6HR MIN TEMP:  26; 6HR MAX TEMP:  28; 6HR PCP: TRACE;                

SALINA         CLOUDY    26  25  96 E5        29.89F                  
6HR MIN TEMP:  25; 6HR MAX TEMP:  26; 6HR PCP:  0.07;                

TOPEKA BILLARD CLOUDY    28  24  85 E12       29.93F WCI  18          
6HR MIN TEMP:  27; 6HR MAX TEMP:  29; 6HR PCP:  0.30;                

TOPEKA FORBES  LGT SNOW  27  24  89 E8        29.91F FOG              
6HR MIN TEMP:  26; 6HR MAX TEMP:  29; 6HR PCP: TRACE;                

$$